Weather History for Sauk Centre, MN

Change the Weather History Date:

Wednesday, November 27, 2013

  Actual Average (KGHW) Record (KGHW)
Temperature  
Mean Temperature 10 °F -  
Max Temperature 21 °F 30 °F 57 °F (1998)
Min Temperature 0 °F 13 °F -16 °F (1985)
Degree Days  
Heating Degree Days 54    
Moisture  
Dew Point 5 °F    
Average Humidity 72    
Maximum Humidity 90    
Minimum Humidity 55    
Precipitation  
Precipitation 0.00 in - - ()
Sea Level Pressure  
Sea Level Pressure 30.18 in    
Wind  
Wind Speed 5 mph (SE)    
Max Wind Speed 18 mph    
Max Gust Speed 25 mph    
Visibility 10 miles    
Events      
Averages and records for this station are not official NWS values.
T = Trace of Precipitation, MM = Missing Value Source: NWS Daily Summary

Daily Weather History Graph

Daily Weather History Graph

Search for Another Location

Airport:

Trip Planner

Search our weather history database for the weather conditions in past years. The results will help you decide how hot, cold, wet, or windy it might be!

Date:

Astronomy

Nov. 27, 2013 Rise Set
Actual Time 7:35 AM CST 4:39 PM CST
Civil Twilight 7:02 AM CST 5:12 PM CST
Nautical Twilight 6:25 AM CST 5:49 PM CST
Astronomical Twilight 5:49 AM CST 6:24 PM CST
Moon 1:21 AM CST 1:32 PM CST
Length of Visible Light 10h 10m
Length of Day
9h 03m
Waning Crescent, 31% of the Moon is Illuminated
Nov 27
Waning Crescent
Dec 2
New
Dec 9
First Quarter
Dec 17
Full
Dec 25
Last Quarter

Hourly Weather History & Observations

Time (CST) Temp. Windchill Dew Point Humidity Pressure Visibility Wind Dir Wind Speed Gust Speed Precip Events Conditions
12:13 AM 6.3 °F -0.7 °F 3.0 °F 87% 30.38 in 10.0 mi WNW 3.5 mph - N/A   Clear
12:34 AM 6.6 °F - 3.7 °F 88% 30.38 in 10.0 mi Calm Calm - N/A   Clear
12:53 AM 5.9 °F -1.1 °F 3.2 °F 89% 30.37 in 10.0 mi WNW 3.5 mph - N/A   Clear
1:13 AM 5.5 °F -3.4 °F 2.7 °F 88% 30.38 in 10.0 mi WNW 4.6 mph - N/A   Clear
1:34 AM 5.0 °F -2.1 °F 2.1 °F 88% 30.36 in 10.0 mi NW 3.5 mph - N/A   Clear
1:53 AM 4.1 °F - 1.4 °F 89% 30.36 in 10.0 mi Calm Calm - N/A   Clear
2:13 AM 4.3 °F - 1.6 °F 89% 30.36 in 10.0 mi Calm Calm - N/A   Clear
2:34 AM 4.1 °F - 1.8 °F 90% 30.36 in 10.0 mi Calm Calm - N/A   Clear
2:53 AM 3.4 °F - 0.5 °F 88% 30.36 in 10.0 mi Calm Calm - N/A   Clear
3:13 AM 3.6 °F - 1.0 °F 89% 30.35 in 10.0 mi Calm Calm - N/A   Clear
3:34 AM 2.3 °F - -0.4 °F 88% 30.35 in 10.0 mi Calm Calm - N/A   Clear
3:53 AM 2.1 °F - -0.9 °F 87% 30.34 in 10.0 mi Calm Calm - N/A   Clear
4:13 AM 1.6 °F - -1.8 °F 86% 30.34 in 10.0 mi Calm Calm - N/A   Clear
4:34 AM 1.8 °F - -1.3 °F 87% 30.34 in 10.0 mi Calm Calm - N/A   Clear
4:53 AM 0.9 °F - -2.2 °F 87% 30.33 in 10.0 mi Calm Calm - N/A   Clear
5:13 AM 1.9 °F - -0.9 °F 88% 30.34 in 10.0 mi Calm Calm - N/A   Clear
5:34 AM 0.7 °F - -2.2 °F 88% 30.33 in 10.0 mi Calm Calm - N/A   Clear
5:53 AM 0.1 °F - -2.7 °F 88% 30.33 in 10.0 mi Calm Calm - N/A   Clear
6:13 AM 0.7 °F - -2.4 °F 87% 30.31 in 10.0 mi Calm Calm - N/A   Clear
6:34 AM 0.5 °F - -2.7 °F 86% 30.31 in 10.0 mi Calm Calm - N/A   Clear
6:53 AM 1.0 °F - -2.2 °F 86% 30.30 in 10.0 mi Calm Calm - N/A   Clear
7:13 AM 1.2 °F - -2.0 °F 86% 30.30 in 10.0 mi Calm Calm - N/A   Clear
7:34 AM 0.9 °F - -2.4 °F 86% 30.30 in 10.0 mi Calm Calm - N/A   Clear
7:53 AM 1.4 °F - -2.0 °F 86% 30.29 in 10.0 mi Calm Calm - N/A   Clear
8:13 AM 2.3 °F - -0.8 °F 87% 30.29 in 10.0 mi Calm Calm - N/A   Clear
8:34 AM 6.3 °F - 3.7 °F 89% 30.29 in 10.0 mi Calm Calm - N/A   Clear
8:53 AM 6.6 °F - 3.7 °F 88% 30.29 in 10.0 mi Calm Calm - N/A   Clear
9:13 AM 9.1 °F -0.7 °F 6.6 °F 89% 30.28 in 10.0 mi SE 5.8 mph - N/A   Clear
9:33 AM 10.6 °F -1.3 °F 7.5 °F 87% 30.28 in 10.0 mi SE 8.1 mph - N/A   Clear
9:53 AM 11.8 °F -0.7 °F 8.6 °F 87% 30.26 in 10.0 mi SSE 9.2 mph - N/A   Clear
10:13 AM 12.9 °F -0.9 °F 9.1 °F 85% 30.24 in 10.0 mi SSE 11.5 mph - N/A   Clear
10:33 AM 13.6 °F 0.7 °F 8.2 °F 79% 30.24 in 10.0 mi SE 10.4 mph - N/A   Scattered Clouds
10:53 AM 14.7 °F 1.4 °F 7.9 °F 74% 30.23 in 10.0 mi SE 11.5 mph - N/A   Scattered Clouds
11:14 AM 14.9 °F 1.6 °F 7.5 °F 73% 30.22 in 10.0 mi SSE 11.5 mph - N/A   Scattered Clouds
11:33 AM 15.8 °F 2.7 °F 7.9 °F 71% 30.21 in 10.0 mi SE 11.5 mph - N/A   Mostly Cloudy
11:53 AM 16.2 °F 3.9 °F 7.7 °F 69% 30.19 in 10.0 mi SE 10.4 mph - N/A   Scattered Clouds
12:13 PM 16.2 °F 4.7 °F 7.7 °F 69% 30.18 in 10.0 mi SE 9.2 mph - N/A   Scattered Clouds
12:33 PM 16.5 °F 3.0 °F 7.7 °F 68% 30.16 in 10.0 mi SE 12.7 mph - N/A   Overcast
12:54 PM 16.7 °F 3.8 °F 7.7 °F 68% 30.14 in 10.0 mi SE 11.5 mph - N/A   Overcast
1:13 PM 17.2 °F 4.5 °F 7.7 °F 66% 30.13 in 10.0 mi SSE 11.5 mph 17.3 mph N/A   Overcast
1:33 PM 17.2 °F 1.7 °F 7.7 °F 66% 30.09 in 10.0 mi SSE 17.3 mph - N/A   Overcast
1:54 PM 18.5 °F 2.9 °F 8.1 °F 64% 30.07 in 10.0 mi SE 18.4 mph 21.9 mph N/A   Overcast
2:13 PM 18.7 °F 4.6 °F 7.3 °F 61% 30.07 in 10.0 mi SE 15.0 mph 24.2 mph N/A   Mostly Cloudy
2:33 PM 18.9 °F 3.8 °F 7.7 °F 62% 30.05 in 10.0 mi SE 17.3 mph 25.3 mph N/A   Mostly Cloudy
2:54 PM 19.9 °F 6.2 °F 7.3 °F 58% 30.04 in 10.0 mi SSE 15.0 mph 21.9 mph N/A   Scattered Clouds
3:13 PM 20.5 °F 6.4 °F 7.5 °F 57% 30.04 in 10.0 mi SE 16.1 mph 20.7 mph N/A   Scattered Clouds
3:33 PM 21.0 °F 7.6 °F 7.3 °F 56% 30.02 in 10.0 mi SE 15.0 mph 19.6 mph N/A   Clear
3:53 PM 20.8 °F 6.8 °F 6.8 °F 55% 30.02 in 10.0 mi SE 16.1 mph 21.9 mph N/A   Scattered Clouds
4:13 PM 20.3 °F 6.6 °F 6.8 °F 56% 30.00 in 10.0 mi SE 15.0 mph - N/A   Scattered Clouds
4:33 PM 20.7 °F 8.2 °F 6.8 °F 55% 30.00 in 10.0 mi SE 12.7 mph - N/A   Scattered Clouds
4:53 PM 20.1 °F 7.5 °F 6.3 °F 55% 30.02 in 10.0 mi SSE 12.7 mph 19.6 mph N/A   Clear
5:13 PM 19.8 °F 5.9 °F 6.3 °F 56% 30.02 in 10.0 mi SSE 15.0 mph - N/A   Clear
5:33 PM 19.4 °F 7.9 °F 6.4 °F 57% 30.03 in 10.0 mi SSE 10.4 mph - N/A   Clear
5:53 PM 18.3 °F 6.6 °F 6.4 °F 60% 30.05 in 10.0 mi SSE 10.4 mph - N/A   Clear
6:13 PM 18.0 °F 7.7 °F 5.9 °F 59% 30.05 in 10.0 mi SSE 8.1 mph - N/A   Clear
6:33 PM 18.5 °F 10.4 °F 6.6 °F 60% 30.05 in 10.0 mi SE 5.8 mph - N/A   Mostly Cloudy
6:53 PM 19.0 °F 10.0 °F 6.4 °F 58% 30.05 in 10.0 mi SE 6.9 mph - N/A   Overcast
7:13 PM 19.2 °F 10.2 °F 6.8 °F 59% 30.04 in 10.0 mi SE 6.9 mph - N/A   Overcast
7:33 PM 19.4 °F 8.6 °F 6.8 °F 58% 30.03 in 10.0 mi SE 9.2 mph - N/A   Overcast
7:53 PM 19.8 °F 8.3 °F 6.8 °F 57% 30.02 in 10.0 mi ESE 10.4 mph - N/A   Overcast
8:14 PM 19.8 °F 8.3 °F 6.8 °F 57% 30.02 in 10.0 mi ESE 10.4 mph - N/A   Overcast
8:33 PM 19.9 °F 7.9 °F 6.6 °F 56% 30.01 in 10.0 mi SE 11.5 mph - N/A   Overcast
8:53 PM 20.1 °F 9.5 °F 6.8 °F 56% 30.01 in 10.0 mi SE 9.2 mph - N/A   Overcast
9:13 PM 20.3 °F 9.8 °F 6.8 °F 56% 30.01 in 10.0 mi SE 9.2 mph - N/A   Overcast
9:33 PM 20.3 °F 10.6 °F 7.2 °F 57% 30.01 in 10.0 mi SE 8.1 mph - N/A   Overcast
9:53 PM 20.3 °F 11.5 °F 7.2 °F 57% 30.01 in 10.0 mi SE 6.9 mph - N/A   Overcast
10:13 PM 20.1 °F 10.3 °F 7.3 °F 58% 30.01 in 10.0 mi SE 8.1 mph - N/A   Overcast
10:33 PM 20.3 °F 12.5 °F 7.7 °F 58% 30.01 in 10.0 mi ESE 5.8 mph - N/A   Overcast
10:53 PM 20.1 °F 15.2 °F 7.7 °F 59% 30.01 in 10.0 mi SE 3.5 mph - N/A   Overcast
11:13 PM 20.1 °F 13.6 °F 8.1 °F 60% 30.02 in 10.0 mi ESE 4.6 mph - N/A   Overcast
11:33 PM 20.1 °F - 8.2 °F 60% 30.02 in 10.0 mi Calm Calm - N/A   Overcast
11:54 PM 20.1 °F - 8.6 °F 61% 30.03 in 10.0 mi Calm Calm - N/A   Overcast